STARLINK-32456, 62041

Orbit data source: Space-Track

STARLINK-32456, 62041 is a payload satellite owned by SpaceX/Seattle (US) in LEO that was launched on Thu, 21 Nov 2024 UTC via an FALCON 9 launch vehicle from the Air Force Eastern Test Range (AFETR). Payload-class satellites include a variety of spacecraft equipped with specific instruments for various scientific and technological missions. These include communications satellites like Starlink; space stations such as the ISS; scientific satellites like the Hubble; Earth observation satellites from companies like Planet Labs, Umbra, and HawkEye 360; GPS; miniature CubeSats for education and research; and military/defense satellites.

Loading next visibility...
Identifier
62041, 2024-216K
Orbit
LEO
Country
Flag of USUS
Related business
Manufacturer
SpaceX/Seattle
Mission
Operational Commercial Communications
Bus & Motor
STARLINK V2M, Unknown motor
Mass
730 kg wet, ~700 kg dry
Launch date (UTC)
2024-11-21 (2 years ago)
Launch vehicle
FALCON 9
Launch site
Air Force Eastern Test Range (AFETR)
Object type
Payload
Rocket body
Debris
Shape & HBR
Box + 2 Pan, 17.7 m
Radar Cross Section
33.884 m², Large (>1 m²)

Expand to show TLE details & history
Last TLE update: 12 hours ago

TLE from 12 hours ago
0 STARLINK-32456
1 62041U 24216K   26196.19924500  .00006117  00000-0  23167-3 0  9999
2 62041  42.9968 256.4685 0001529 284.4948  75.5734 15.27573812 93379
Epoch: 2026-07-15T04:46Z
TLE epoch observation values (Epoch: 2026-07-15T04:46:54.768Z)
Latitude
-0.00003°
Longitude
-108.31821°
Altitude
482.582 km
Speed
7.626 km/s
True Right ascension
17h 05m 52s
True Declination
0° 00' 00"
Sunlit
Object was in full shadow at epoch
Visualization orbit readout
Latitude
Unknown
Longitude
Unknown
Altitude
Unknown
Speed
Unknown
Apparent Right ascension
Unknown
Apparent Declination
Unknown
Sunlit
N/A
Visualization observer readout
Local Sidereal Time
05:44:31
Azimuth
Unknown
Elevation
Unknown
Doppler factor
Unknown
Orbital elements
Apogee altitude
486.063 km
Perigee altitude
483.964 km
Semi-major axis
6,863.15 km
Eccentricity
0.00015
Inclination
42.9968°
RAAN
256.4685°
Arg. of periapsis
284.4948°
True anomaly
75.59037°
Mean anomaly
75.5734°
Eccentric anomaly
75.58188°
Mean motion
3.81731 °/min
Orbital period
94.31 mins
BSTAR
0.00023167
Loading maneuver chart data...
Computing Atmospheric mass density...
Loading historical data...
Loading historical data...
Loading historical data...
Loading historical data...
Loading historical data...
Loading historical data...
Loading historical data...

Documentation

Showing up to 5 results
|